Regional Weather Roundup
Issued by NWS

Home | Current Version | Previous Version | Text Only | Print | Product List | Glossary Off
Versions: 1 2 3 4 5 6 7 8 9 10 11 12 13 14 15 16 17 18 19 20 21 22 23 24 25 26 27 28 29 30 31 32 33 34 35 36 37 38 39 40 41 42 43 44 45 46 47 48 49 50

000
ASUS43 KIND 200059
RWRIN

WEATHER ROUNDUP FOR INDIANA
NATIONAL WEATHER SERVICE INDIANAPOLIS IN
900 PM EDT SUN OCT 19 2014

NOTE: "FAIR" INDICATES FEW OR NO CLOUDS BELOW 12,000 FEET WITH NO
SIGNIFICANT WEATHER AND/OR OBSTRUCTIONS TO VISIBILITY.

* - STATION DOES NOT REPORT WEATHER SUCH AS PRECIPITATION OR FOG.

+ - STATION NOT QUALITY CONTROLLED BY THE NATIONAL WEATHER SERVICE.
    USE DATA WITH CAUTION...ESPECIALLY DEWPOINT AND RELATIVE
    HUMIDITY OBSERVATIONS.

INZ001>003-010>013-019-020-200200-
NORTHWEST INDIANA

CITY           SKY/WX    TMP DP  RH WIND       PRES   REMARKS
GARY /AIRPORT/ CLOUDY    54  41  62 S14       29.98F
VALPARAISO     NOT AVBL

$$

LMZ046-743>745-200200-
SOUTHERN LAKE MICHIGAN

STATION/POSITION TIME  TEMP WIND        PRES
                       AIR  DIR/SP/G
                 (UTC) (F)  (DEG/KT/KT) (MB)
MICHIGAN CITY    0000   53  170/  9/ 11   N/A

$$

INZ004-005-014>016-021>024-200200-
NORTH CENTRAL INDIANA

CITY           SKY/WX    TMP DP  RH WIND       PRES   REMARKS
GOSHEN         CLOUDY    50  39  66 S9        30.01F
SOUTH BEND     CLOUDY    51  40  65 S9        30.01F

$$

INZ006>009-017-018-025>027-200200-
NORTHEAST INDIANA

CITY           SKY/WX    TMP DP  RH WIND       PRES   REMARKS
ANGOLA *+      CLEAR     46  37  71 S3        30.02F
FORT WAYNE     CLOUDY    47  38  71 S7        30.05F

$$

INZ028-029-035-036-043>045-051>053-200200-
WEST CENTRAL INDIANA

CITY           SKY/WX    TMP DP  RH WIND       PRES   REMARKS
GREENCASTLE +  CLEAR     43  41  93 CALM      30.09S
LAFAYETTE      PTCLDY    49  41  74 SW7       30.06S
TERRE HAUTE    PTCLDY    46  41  82 S3        30.09F

$$

INZ030>032-037>040-046>048-054>057-064-065-200200-
CENTRAL INDIANA

CITY           SKY/WX    TMP DP  RH WIND       PRES   REMARKS
COLUMBUS       CLEAR     45  41  87 CALM      30.11F
INDIANAPOLIS   PTCLDY    47  39  74 S8        30.08F
-EAGLE CREEK   CLEAR     48  39  71 S5        30.07F
KOKOMO *+      MOCLDY    46  37  71 S6        30.06F
MT COMFORT *+  CLEAR     46  36  66 S5        30.08F
SHELBYVILLE    CLEAR     48  40  73 S7        30.08F

$$

INZ033-034-041-042-049-050-058-059-200200-
EAST CENTRAL INDIANA

CITY           SKY/WX    TMP DP  RH WIND       PRES   REMARKS
MUNCIE         PTCLDY    49  38  65 SW5       30.06F

$$

INZ060-061-067>069-081>083-085>088-200200-
SOUTHWEST INDIANA

CITY           SKY/WX    TMP DP  RH WIND       PRES   REMARKS
EVANSVILLE     MOCLDY    53  45  74 SW3       30.11F
HUNTINGBURG *+ PTCLDY    48  41  76 CALM      30.11S

$$

INZ062-063-066-070>080-084-089>092-200200-
SOUTH CENTRAL AND SOUTHEAST INDIANA

CITY           SKY/WX    TMP DP  RH WIND       PRES   REMARKS
BLOOMINGTON    PTCLDY    46  41  82 SW3       30.09F
SEYMOUR +      CLEAR     45  41  87 CALM      30.10

$$



USA.gov is the U.S. government's official web portal to all federal, state and local government web resources and services.